Cheraw, SC

12:40 PM EDT on August 20, 2017 (GMT -0400)
Cheraw

Weather History for KCQW - September, 2012

Change the Weather History Date:

Sunday, September 23, 2012

  Actual Average (KFLO) Record (KFLO)
Temperature  
Mean Temperature 68 °F -  
Max Temperature 78 °F 82 °F 100 °F (1980)
Min Temperature 57 °F 61 °F 44 °F (1999)
Cooling Degree Days 2    
Growing Degree Days 18 (Base 50)    
Moisture  
Dew Point 55 °F    
Average Humidity 66    
Maximum Humidity 100    
Minimum Humidity 30    
Precipitation  
Precipitation 0.00 in - - ()
Sea Level Pressure  
Sea Level Pressure 30.06 in    
Wind  
Wind Speed 8 mph (North)    
Max Wind Speed 23 mph    
Max Gust Speed 37 mph    
Visibility 10 miles    
Events      
Averages and records for this station are not official NWS values.
T = Trace of Precipitation, MM = Missing Value Source: NWS Daily Summary

Daily Weather History Graph

Daily Weather History Graph

Search for Another Location

Airport or City:

Trip Planner

Search our weather history database for the weather conditions in past years. The results will help you decide how hot, cold, wet, or windy it might be!

Date:

Astronomy

Sep. 23, 2012 Rise Set
Actual Time 7:08 AM EDT 7:14 PM EDT
Civil Twilight 6:43 AM EDT 7:39 PM EDT
Nautical Twilight 6:14 AM EDT 8:08 PM EDT
Astronomical Twilight 5:44 AM EDT 8:38 PM EDT
Moon 3:01 PM EDT (9/23) 12:32 AM EDT (9/23)
Length of Visible Light 12h 55m
Length of Day
12h 05m
First Quarter, 60% of the Moon is Illuminated
Sep 23
First Quarter
Sep 29
Full
Oct 8
Last Quarter
Oct 15
New
Oct 21
First Quarter

Hourly Weather History & Observations

Time (EDT) Temp. Dew Point Humidity Pressure Visibility Wind Dir Wind Speed Gust Speed Precip Events Conditions
12:15 AM 66.2 °F 66.2 °F 100% 29.98 in 10.0 mi Calm Calm - N/A   Clear
12:35 AM 66.2 °F 66.2 °F 100% 29.98 in 10.0 mi South 3.5 mph - N/A   Mostly Cloudy
12:55 AM 68.0 °F 66.2 °F 94% 29.98 in 10.0 mi West 10.4 mph 29.9 mph N/A   Mostly Cloudy
1:15 AM 69.8 °F 66.2 °F 88% 29.99 in 10.0 mi NW 5.8 mph - N/A   Mostly Cloudy
1:35 AM 69.8 °F 66.2 °F 88% 29.99 in 10.0 mi SW 10.4 mph - N/A   Partly Cloudy
1:55 AM 69.8 °F 66.2 °F 88% 29.99 in 10.0 mi WSW 9.2 mph - N/A   Scattered Clouds
2:15 AM 69.8 °F 66.2 °F 88% 29.99 in 10.0 mi WNW 11.5 mph - N/A   Mostly Cloudy
2:35 AM 69.8 °F 66.2 °F 88% 30.00 in 10.0 mi WNW 9.2 mph - N/A   Mostly Cloudy
2:55 AM 68.0 °F 64.4 °F 88% 29.99 in 10.0 mi NW 6.9 mph - N/A   Scattered Clouds
3:15 AM 69.8 °F 64.4 °F 83% 29.99 in 10.0 mi NNW 10.4 mph - N/A   Scattered Clouds
3:35 AM 68.0 °F 64.4 °F 88% 30.00 in 10.0 mi North 11.5 mph - N/A   Scattered Clouds
3:55 AM 66.2 °F 62.6 °F 88% 30.00 in 10.0 mi North 12.7 mph 19.6 mph N/A   Mostly Cloudy
4:15 AM 66.2 °F 62.6 °F 88% 30.01 in 10.0 mi NNE 12.7 mph 19.6 mph N/A   Scattered Clouds
4:35 AM 66.2 °F 62.6 °F 88% 30.01 in 10.0 mi North 11.5 mph 16.1 mph N/A   Mostly Cloudy
4:55 AM 66.2 °F 62.6 °F 88% 30.02 in 10.0 mi North 8.1 mph - N/A   Mostly Cloudy
5:15 AM 64.4 °F 62.6 °F 94% 30.02 in 10.0 mi North 9.2 mph - N/A   Partly Cloudy
5:35 AM 64.4 °F 60.8 °F 88% 30.03 in 10.0 mi North 6.9 mph - N/A   Partly Cloudy
5:55 AM 64.4 °F 60.8 °F 88% 30.04 in 10.0 mi NNW 10.4 mph - N/A   Partly Cloudy
6:15 AM 62.6 °F 60.8 °F 94% 30.05 in 10.0 mi NNW 6.9 mph - N/A   Scattered Clouds
6:35 AM 62.6 °F 60.8 °F 94% 30.05 in 10.0 mi NNW 8.1 mph - N/A   Partly Cloudy
6:55 AM 62.6 °F 60.8 °F 94% 30.06 in 10.0 mi NNW 11.5 mph - N/A   Partly Cloudy
7:15 AM 62.6 °F 59.0 °F 88% 30.06 in 10.0 mi North 10.4 mph - N/A   Partly Cloudy
7:35 AM 62.6 °F 57.2 °F 82% 30.07 in 10.0 mi NE 4.6 mph - N/A   Clear
7:55 AM 62.6 °F 57.2 °F 82% 30.08 in 10.0 mi North 5.8 mph - N/A   Partly Cloudy
8:15 AM 62.6 °F 59.0 °F 88% 30.08 in 10.0 mi North 5.8 mph - N/A   Clear
8:35 AM 66.2 °F 57.2 °F 73% 30.08 in 10.0 mi NNE 10.4 mph 18.4 mph N/A   Partly Cloudy
8:55 AM 66.2 °F 57.2 °F 73% 30.09 in 10.0 mi NNE 13.8 mph 21.9 mph N/A   Clear
9:15 AM 68.0 °F 57.2 °F 68% 30.10 in 10.0 mi NNE 18.4 mph 25.3 mph N/A   Clear
9:35 AM 69.8 °F 57.2 °F 64% 30.10 in 10.0 mi NNE 18.4 mph 23.0 mph N/A   Clear
9:55 AM 69.8 °F 55.4 °F 60% 30.10 in 10.0 mi North 16.1 mph 24.2 mph N/A   Clear
10:15 AM 71.6 °F 55.4 °F 57% 30.11 in 10.0 mi NNE 16.1 mph 23.0 mph N/A   Clear
10:35 AM 71.6 °F 51.8 °F 50% 30.11 in 10.0 mi North 21.9 mph 31.1 mph N/A   Clear
10:55 AM 73.4 °F 51.8 °F 47% 30.12 in 10.0 mi NNE 21.9 mph 31.1 mph N/A   Clear
11:15 AM 75.2 °F 50.0 °F 41% 30.11 in 10.0 mi NNE 23.0 mph 36.8 mph N/A   Clear
11:35 AM 75.2 °F 46.4 °F 36% 30.12 in 10.0 mi NNE 20.7 mph 34.5 mph N/A   Scattered Clouds
11:55 AM 75.2 °F 48.2 °F 38% 30.11 in 10.0 mi NE 19.6 mph 29.9 mph N/A   Partly Cloudy
12:15 PM 75.2 °F 48.2 °F 38% 30.11 in 10.0 mi NE 23.0 mph 27.6 mph N/A   Partly Cloudy
12:35 PM 77.0 °F 48.2 °F 36% 30.11 in 10.0 mi North 18.4 mph 27.6 mph N/A   Clear
12:55 PM 77.0 °F 48.2 °F 36% 30.10 in 10.0 mi NE 16.1 mph 34.5 mph N/A   Clear
1:15 PM 77.0 °F 48.2 °F 36% 30.09 in 10.0 mi NNW 8.1 mph 20.7 mph N/A   Clear
1:35 PM 77.0 °F 50.0 °F 39% 30.09 in 10.0 mi North 16.1 mph 23.0 mph N/A   Clear
1:55 PM 77.0 °F 46.4 °F 34% 30.08 in 10.0 mi North 15.0 mph 23.0 mph N/A   Clear
2:15 PM 78.8 °F 46.4 °F 32% 30.08 in 10.0 mi NNW 13.8 mph 25.3 mph N/A   Clear
2:35 PM 78.8 °F 44.6 °F 30% 30.07 in 10.0 mi Calm Calm - N/A   Clear
2:55 PM 78.8 °F 46.4 °F 32% 30.06 in 10.0 mi NNE 16.1 mph 21.9 mph N/A   Clear
3:15 PM 78.8 °F 46.4 °F 32% 30.06 in 10.0 mi NNW 11.5 mph 20.7 mph N/A   Clear
3:35 PM 78.8 °F 44.6 °F 30% 30.06 in 10.0 mi NNW 11.5 mph 24.2 mph N/A   Clear
3:55 PM 78.8 °F 44.6 °F 30% 30.06 in 10.0 mi NNE 4.6 mph 19.6 mph N/A   Clear
4:15 PM 78.8 °F 46.4 °F 32% 30.05 in 10.0 mi NNW 10.4 mph 23.0 mph N/A   Clear
4:35 PM 78.8 °F 46.4 °F 32% 30.05 in 10.0 mi NNE 6.9 mph 18.4 mph N/A   Clear
4:55 PM 78.8 °F 46.4 °F 32% 30.05 in 10.0 mi WNW 5.8 mph 18.4 mph N/A   Clear
5:15 PM 77.0 °F 48.2 °F 36% 30.05 in 10.0 mi NNE 13.8 mph 20.7 mph N/A   Clear
5:35 PM 77.0 °F 48.2 °F 36% 30.06 in 10.0 mi NE 12.7 mph 16.1 mph N/A   Clear
5:55 PM 77.0 °F 48.2 °F 36% 30.06 in 10.0 mi NE 9.2 mph - N/A   Clear
6:15 PM 75.2 °F 48.2 °F 38% 30.06 in 10.0 mi ENE 8.1 mph - N/A   Clear
6:35 PM 73.4 °F 51.8 °F 47% 30.06 in 10.0 mi NE 3.5 mph - N/A   Unknown
6:55 PM 71.6 °F 53.6 °F 53% 30.06 in 10.0 mi Calm Calm - N/A   Unknown
7:15 PM 66.2 °F 53.6 °F 64% 30.07 in 10.0 mi Calm Calm - N/A   Unknown
7:35 PM 66.2 °F 53.6 °F 64% 30.07 in 10.0 mi Calm Calm - N/A   Partly Cloudy
7:55 PM 64.4 °F 53.6 °F 68% 30.08 in 10.0 mi Calm Calm - N/A   Clear
8:15 PM 62.6 °F 55.4 °F 77% 30.08 in 10.0 mi Calm Calm - N/A   Clear
8:35 PM 62.6 °F 55.4 °F 77% 30.09 in 10.0 mi Calm Calm - N/A   Clear
8:55 PM 60.8 °F 55.4 °F 82% 30.09 in 10.0 mi Calm Calm - N/A   Clear
9:15 PM 60.8 °F 55.4 °F 82% 30.10 in 10.0 mi Calm Calm - N/A   Clear
9:35 PM 59.0 °F 55.4 °F 88% 30.10 in 10.0 mi Calm Calm - N/A   Clear
9:55 PM 59.0 °F 55.4 °F 88% 30.11 in 10.0 mi NNE 4.6 mph - N/A   Clear
10:15 PM 59.0 °F 53.6 °F 82% 30.11 in 10.0 mi NE 3.5 mph - N/A   Unknown
10:35 PM 59.0 °F 53.6 °F 82% 30.11 in 10.0 mi Calm Calm - N/A   Clear
10:55 PM 57.2 °F 53.6 °F 88% 30.11 in 10.0 mi Calm Calm - N/A   Clear
11:15 PM 57.2 °F 53.6 °F 88% 30.11 in 10.0 mi NNE 3.5 mph - N/A   Clear
11:35 PM 57.2 °F 51.8 °F 82% 30.11 in 10.0 mi Calm Calm - N/A   Clear
11:55 PM 57.2 °F 46.4 °F 67% 30.11 in 10.0 mi Calm Calm - N/A   Clear